Rbgn^[z[y[W
メイン
   新天体発見情報
     Comet C/2021 B2 (PANSTARRS)
投稿するにはまず登録を

スレッド表示 | 古いものから 前のトピック | 次のトピック | 下へ
投稿者 スレッド
佐藤裕久
投稿日時: 2021-1-25 18:42
モデレータ
登録日: 2005-6-12
居住地: 日本
投稿: 2629
オンライン
Comet C/2021 B2 (PANSTARRS)

R. WerykとR. Wainscoat (ハワイ大学天文学研究所)の通報によると、1月17日UT、Haleakalaに
あるPan-STARRS1 1.8-m Ritchey-Chretien反射望遠鏡で得た45秒4枚のw-バンド露出から彗星を
発見した。この彗星の集光した頭部は、およそ1".0のシーイングでおよそ1".2(半値全幅:FWHM)
あり、各イメージにはp.a. 50°に約5"の低表面輝度の尾が見える。
小惑星センターのNEOCPとPCCP webpageに公表後、 E. Bryssinck (Kruibeke, ベルギー, 18.13-
18.16日UT, "Telescope Live"の0.6-m f/6.5反射望遠鏡, Rio Hurtado Valley, チリ:強い中央
集光した6".5の小さく丸いコマが見え、p.a. 56°に7"の尾の気配がある。5"の範囲の光度は
19.7-19.8等であった)や佐藤英貴氏(東京都文京区,1月18.5日, 60秒露出12枚のスタック, 0.51-m 
f/6.8 アストログラフ, Siding Spring, NSW, 遠隔操作:強く集光した8" のコマとp.a. 80°に
向かって10" の尾が見える。4".9の円形範囲で測定した光度は19.3等であった)らCCD位置観測者
によって彗星状と観測された。

彗星機能の報告は次の通り:

OC   Date        Reporter           Coma    Tail    PA          Exposures
F51  2020-12-24  R. Weryk           0".3    4"      40            2x45s 
568  2021-01-18  R. Weryk           2"      8"      50-85         3x60s
Q62  2021-01-18  H. Sato            8"     10"      80           12x60s
X02  2021-01-18  E. Bryssinck       6"      7"      58           22x60s
F51  2021-01-18  M. Wawerzonnek     3"      7"      50-70         4x80s

発見位置は次のとおり、

     2021 UT             R.A. (2000) Decl.       Mag.
     Jan. 17.23183    3 27 53.86   -20 56 36.1   19.9
          17.24418    3 27 54.06   -20 56 21.8   19.9
          17.25662    3 27 54.25   -20 56 07.5   19.8
          17.26902    3 27 54.41   -20 55 53.2   19.9

MPCの準放物線軌道要素、位置推算表は次のとおり、

Orbital elements:
    C/2021 B2 (PANSTARRS)                                                       
Epoch 2021 Apr. 16.0 TT = JDT 2459320.5                                         
T 2021 May 4.09843 TT                                   Rudenko                 
q   2.5194973            (2000.0)            P               Q                  
z  +0.0022720      Peri.  334.87172     -0.17066962     -0.82907154             
 +/-0.0005683      Node   120.43626     +0.97572972     -0.21744951             
e   0.9942757      Incl.   38.13839     +0.13719839     +0.51512725             
From 32 observations 2020 Dec. 24-2021 Jan. 18, mean residual 0".6.             
                                                                                
    C/2021 B2 (PANSTARRS)                                                       
Epoch 2020 Dec. 17.0 TT = JDT 2459200.5                                         
T 2021 May 4.11336 TT                                   Rudenko                 
q   2.5194660            (2000.0)            P               Q                  
z  +0.0023379      Peri.  334.87610     -0.17073023     -0.82905706             
 +/-0.0005683      Node   120.43605     +0.97571368     -0.21752148             
e   0.9941096      Incl.   38.13856     +0.13723706     +0.51512017             
From 32 observations 2020 Dec. 24-2021 Jan. 18, mean residual 0".6.             
                                                                                
Ephemeris:
Date    TT    R. A. (2000) Decl.     Delta      r    Elong.  Phase   m1
2020 12 24    03 28 20.6 -27 48 48   2.3174  2.8822   115.6    17.9  20.4
...
2021 01 08    03 26 25.9 -23 47 25   2.3512  2.8093   107.6    19.5  20.3
...
2021 01 16    03 27 35.0 -21 20 06   2.3806  2.7730   103.0    20.2  20.3
...
2021 01 22    03 29 27.2 -19 23 46   2.4072  2.7472    99.5    20.7  20.3
2021 01 23    03 29 50.9 -19 04 00   2.4120  2.7430    98.9    20.8  20.3
2021 01 24    03 30 15.9 -18 44 08   2.4169  2.7388    98.3    20.8  20.3
...
2021 01 30    03 33 14.6 -16 43 22   2.4482  2.7145    94.8    21.2  20.3
...
2021 02 07    03 38 26.1 -13 59 28   2.4947  2.6841    90.1    21.6  20.3
...
2021 02 22    03 51 38.2 -08 50 54   2.5946  2.6332    81.3    21.8  20.3

(MPEC 2021-B120、CBET 4921)

スレッド表示 | 古いものから 前のトピック | 次のトピック | トップ

投稿するにはまず登録を
 
© 1999 Tsutomu Seki.